N5GAH-13 Weather Reports


Display with metric or nautical units.
time (UTC)temp
F
wind
direction
speed
MPH
gust
MPH
rain 1hr
in
rain 24hr
in
rain mn
in
humidity
%
barometer
mb
20260502222330 70 156 2.0 5.0 0.00 0.20 0.18 41 1025.6
20260502215330 70 274 3.0 9.0 0.00 0.20 0.17 39 1026.0
20260502212330 73 242 7.0 12.0 0.00 0.20 0.17 38 1026.6
20260502205330 73 205 3.0 10.0 0.00 0.20 0.16 41 1026.8
20260502202330 69 248 3.0 7.0 0.00 0.30 0.16 42 1027.1
20260502192330 69 225 4.0 10.0 0.00 0.30 0.14 43 1027.8
20260502185330 70 201 2.0 8.0 0.00 0.30 0.14 45 1028.0
20260502182330 69 193 3.0 7.0 0.00 0.30 0.13 47 1028.5
20260502162330 62 221 4.0 9.0 0.00 0.30 0.10 55 1028.9
20260502152330 58 240 7.0 14.0 0.00 0.30 0.09 62 1029.0
20260502122330 45 333 2.0 3.0 0.00 0.30 0.06 90 1027.5
20260502115329 45 332 2.0 5.0 0.00 0.30 0.06 90 1027.2
20260502112329 46 0 0.0 0.0 0.00 0.30 0.05 90 1027.0
20260502105329 46 343 2.0 3.0 0.00 0.30 0.05 90 1027.0
20260502102329 47 313 0.0 2.0 0.00 0.30 0.05 90 1026.7
20260502065329 48 295 1.0 3.0 0.00 0.30 0.02 88 1027.0
20260502062330 48 300 1.0 3.0 0.00 0.30 0.01 87 1026.8
20260502055329 49 322 2.0 4.0 0.00 0.30 0.01 87 1026.7
20260502052329 50 315 3.0 5.0 0.00 0.30 0.00 87 1026.7
20260502042329 51 244 1.0 3.0 0.00 0.30 0.29 86 1026.2
20260502035329 51 229 1.0 3.0 0.00 0.30 0.29 86 1025.7
20260502032329 51 0 0.0 0.0 0.00 0.30 0.28 85 1025.5
20260502025329 51 61 0.0 2.0 0.00 0.30 0.28 83 1025.0
20260502022329 50 61 0.0 2.0 0.00 0.30 0.28 83 1024.3
20260502012330 50 67 3.0 6.0 0.00 0.30 0.27 82 1023.7
20260502005330 50 46 4.0 8.0 0.00 0.30 0.26 83 1024.2
20260502002330 50 31 6.0 11.0 0.00 0.30 0.25 83 1024.1
20260501235329 52 18 5.0 9.0 0.00 0.30 0.25 84 1023.8
20260501232330 53 22 6.0 12.0 0.00 0.30 0.24 82 1023.4
20260501225330 54 52 5.0 10.0 0.00 0.30 0.24 79 1022.8